Regional Weather Roundup
Issued by NWS Charleston, SC

Current Version | Previous Version | Graphics & Text | Print | Product List | Glossary On
Versions: 1 2 3 4 5 6 7 8 9 10 11 12 13 14 15 16 17 18 19 20 21 22 23 24 25 26 27 28 29 30 31 32 33 34 35 36 37 38 39 40 41 42 43 44 45 46 47 48 49 50
000
ASUS42 KCHS 270410
RWRCHS
REGIONAL WEATHER ROUNDUP
NATIONAL WEATHER SERVICE CHARLESTON SC
1200 AM EDT WED AUG 27 2014

NOTE: "FAIR" INDICATES FEW OR NO CLOUDS BELOW 12,000 FEET WITH NO
SIGNIFICANT WEATHER AND/OR OBSTRUCTIONS TO VISIBILITY.

NOT ALL STATIONS ARE QUALITY CONTROLLED BY THE NATIONAL
WEATHER SERVICE. USE DATA WITH CAUTION...ESPECIALLY
DEWPOINT OBSERVATIONS.

SCZ027-030-031-034>040-042>050-270500-
...SOUTH CAROLINA...

CITY           SKY/WX    TMP DP  RH WIND       PRES   REMARKS
N CHARLESTON   CLEAR     74  64  71 NE6       30.03S
WATERFRONT PRK   N/A     79 N/A N/A NE12        N/A
FORT JOHNSON   NOT AVBL
MOUNT PLEASANT FAIR      73  66  78 CALM      30.03F
JOHNS ISLAND   CLEAR     75  68  78 CALM      30.03S
PINOPOLIS        N/A     79  66  65 NE14      29.95S
MONCKS CORNER    N/A     73  68  83 NE6       30.04S
SUMMERVILLE    FAIR      68  66  94 CALM      30.05S
BEAUFORT MCAS  CLEAR     73  64  73 E6        30.03S
BEAUFORT ARPT  FAIR      79  68  69 NE8       30.02F
HILTON HEAD IS CLEAR     77  70  78 N5        30.03F
GEORGETOWN     NOT AVBL
WALTERBORO     CLEAR     68  68 100 CALM      30.05R
ORANGEBURG     CLEAR     69  63  81 CALM      30.05F
BARNWELL       FAIR      70  64  83 CALM      30.05F
AIKEN          FAIR      72  63  73 N7        30.10F
MANNING        FAIR      66  66 100 CALM      30.05S
KINGSTREE      NOT AVBL
COLUMBIA       CLEAR     76  58  53 N7        30.06F
SUMTER         CLEAR     67  61  79 NE8       30.05S
FLORENCE       CLEAR     70  63  78 N6        30.06S
MYRTLE BEACH   CLEAR     72  63  73 N8        30.04S
N MYRTLE BEACH NOT AVBL

$$

GAZ063-065-086>088-099>101-113>116-118-119-134-136>141-150-270500-
...GEORGIA...

CITY           SKY/WX    TMP DP  RH WIND       PRES   REMARKS
SAVANNAH ARPT  CLEAR     73  70  90 N5        30.03S
HUNTER AAF     CLEAR     74  69  84 E2        30.00F
FORT STEWART   CLEAR     71  68  90 CALM      30.01F
STATESBORO     NOT AVBL
SYLVANIA       CLEAR     70  68  95 CALM      30.04F
CLAXTON        NOT AVBL
THOMSON        CLEAR     67  67 100 CALM      30.11F
AUGUSTA-BUSH   CLEAR     68  62  81 N6        30.05S
AUGUSTA-DANIEL CLEAR     76  60  57 N7        30.07S
SWAINSBORO     FAIR      77  70  78 NE6       30.05S
VIDALIA          N/A     73  68  83 CALM      30.04S
ALMA           CLEAR     69  66  90 CALM      30.02F
WAYCROSS       CLEAR     75  72  89 CALM      30.02S
JESUP            N/A     73  72  94 CALM      30.02S
BRUNSWICK      CLEAR     73  68  83 CALM      30.02S
SAINT SIMONS   CLEAR     79  67  66 NE9       30.00F

$$

SCZ027-028-034-036>038-045-046-048>050-GAZ119-141-270500-
...LAKE AND SUPPLEMENTAL COASTAL OBSERVATIONS...

STATION/POSITION TIME  TEMP    WIND        PRES    WAVE   SWELL
                       AIR SEA DIR/SP/G            HT/PER HT/PER/DIR
                 (UTC) (F)     (DEG/KT/KT) (MB)    (FT/S) (FT/S/D)
UPR LAKE MARION  NOT AVBL
WINYAH BAY       0300   75      10/  6     1016.0S
LAKE MURRAY      0300   74      10/  2/  4 1017.9S
ACE BASIN NERRS  0300   72        CALM     1017.0S
FORT PULASKI     0400   80      30/  7/  8 1016.8F
SAPELO ISLAND    0300   79      50/  5     1017.0S

$$

ANZ835-935-AMZ111-154-330-350-352-354-374-450-454-472-270500-
...C-MAN AND BUOY OBSERVATIONS...

STATION/POSITION TIME  TEMP    WIND        PRES    WAVE   SWELL
                       AIR SEA DIR/SP/G            HT/PER HT/PER/DIR
                 (UTC) (F)     (DEG/KT/KT) (MB)    (FT/S) (FT/S/D)
FOLLY BEACH CMAN 0300   79      20/ 11/ 13 1017.2R
BUOY 41004       0400   81 83   20/ 19/ 23 1015.0S   8/11   5/11
BUOY 41008       0400   81 84   50/ 14/ 19 1015.8F   5/ 6   3/120/11
5E ST. MARYS GA  0400      83                N/A     7/11   2/110/11
FRYING PAN BUOY  NOT AVBL
BUOY 41025       0400   77     360/ 19/ 23 1015.0F   8/ 8   5/ 60/10
CAPE LOOKOUT NC  0300   75      20/ 15/ 19 1016.3F
BUOY 41002       0345   80 81   30/ 23/ 31 1009.4F  10/ 8   5/ 80/14
BUOY 41010       0400   82 85   20/ 17/ 21 1012.3F   9/10   7/ 50/10
BUOY 41012       NOT AVBL
ST AUGUSTINE FL  0400   75      50/ 19/ 21 1016.0F
CAPERS NEARSHORE 0300   79      50/ 14/ 19   N/A
FRIPP NEARSHORE  NOT AVBL


$$



USA.gov is the U.S. government's official web portal to all federal, state and local government web resources and services.